EW9318 Weather Reports


time (UTC)temp
C
wind
direction
speed
KPH
gust
KPH
rain 1hr
cm
rain 24hr
cm
rain mn
cm
humidity
%
barometer
mb
20260507203055 11 246 14.5 30.6 0.00 0.00 0.00 43 1010.0
20260507202537 11 253 17.7 30.6 0.00 0.00 0.00 41 1010.2
20260507202037 11 255 12.9 22.5 0.00 0.00 0.00 40 1010.3
20260507201517 11 267 16.1 25.7 0.00 0.00 0.00 41 1010.5
20260507201018 11 251 16.1 25.7 0.00 0.00 0.00 41 1010.6
20260507200517 11 273 17.7 25.7 0.00 0.00 0.00 42 1010.7
20260507200017 11 267 17.7 25.7 0.00 0.00 0.00 41 1010.8
20260507195517 11 275 17.7 25.7 0.00 0.00 0.00 41 1010.8
20260507195017 11 285 12.9 27.4 0.00 0.00 0.00 42 1010.8
20260507194517 11 326 17.7 27.4 0.00 0.00 0.00 42 1010.7
20260507194018 11 301 14.5 24.1 0.00 0.00 0.00 43 1010.9
20260507193517 11 276 16.1 22.5 0.00 0.00 0.00 42 1010.9
20260507193017 10 313 11.3 20.9 0.00 0.00 0.00 43 1011.0
20260507192517 11 284 14.5 25.7 0.00 0.00 0.00 43 1011.1
20260507192017 10 313 17.7 29.0 0.00 0.00 0.00 43 1011.1
20260507191537 10 324 14.5 29.0 0.00 0.00 0.00 43 1011.2
20260507191018 10 309 14.5 25.7 0.00 0.00 0.00 42 1011.2
20260507190516 10 272 14.5 27.4 0.00 0.00 0.00 44 1011.3
20260507190038 10 295 17.7 30.6 0.00 0.00 0.00 47 1011.3
20260507185538 10 318 16.1 30.6 0.00 0.00 0.00 44 1011.4
20260507185037 10 293 11.3 25.7 0.00 0.00 0.00 46 1011.3
20260507184516 10 298 16.1 27.4 0.00 0.00 0.00 44 1011.5
20260507184017 10 296 17.7 29.0 0.00 0.00 0.00 45 1011.5
20260507183517 10 266 17.7 29.0 0.00 0.00 0.00 45 1011.6
20260507183017 10 298 12.9 29.0 0.00 0.00 0.00 47 1011.7
20260507182516 10 299 17.7 29.0 0.00 0.00 0.00 44 1011.7
20260507182036 10 284 16.1 24.1 0.00 0.00 0.00 46 1011.7
20260507181517 10 309 14.5 27.4 0.00 0.00 0.00 49 1011.6
20260507181016 9 309 12.9 27.4 0.00 0.00 0.00 46 1011.7
20260507180518 9 313 14.5 29.0 0.00 0.00 0.00 47 1011.6
20260507180017 9 302 17.7 29.0 0.00 0.00 0.00 46 1011.6
20260507175516 9 295 14.5 27.4 0.00 0.00 0.00 48 1011.6
20260507175018 9 323 12.9 24.1 0.00 0.00 0.00 49 1011.6
20260507174516 9 316 14.5 27.4 0.00 0.00 0.00 48 1011.6
20260507174016 8 309 16.1 27.4 0.00 0.00 0.00 49 1011.7
20260507173516 8 307 14.5 25.7 0.00 0.00 0.00 49 1011.9
20260507173017 8 305 16.1 29.0 0.00 0.00 0.00 48 1011.9
20260507172516 8 294 14.5 29.0 0.00 0.00 0.00 50 1012.1
20260507172016 8 288 12.9 24.1 0.00 0.00 0.00 51 1012.1
20260507171516 8 278 14.5 22.5 0.00 0.00 0.00 51 1012.2
20260507171036 8 309 14.5 20.9 0.00 0.00 0.00 52 1012.4
20260507170516 7 280 11.3 24.1 0.00 0.00 0.00 52 1012.4
20260507170017 7 291 14.5 24.1 0.00 0.00 0.00 52 1012.5
20260507165516 7 289 12.9 22.5 0.00 0.00 0.00 52 1012.6
20260507165016 7 291 14.5 24.1 0.00 0.00 0.00 55 1012.8
20260507164516 7 301 16.1 27.4 0.00 0.00 0.00 53 1013.0
20260507164036 7 299 14.5 27.4 0.00 0.00 0.00 54 1013.2
20260507163516 6 288 12.9 25.7 0.00 0.00 0.00 53 1013.1
20260507163016 6 294 14.5 25.7 0.00 0.00 0.00 52 1013.3
20260507162517 6 295 12.9 25.7 0.00 0.00 0.00 53 1013.4
20260507162016 6 307 17.7 37.0 0.00 0.00 0.00 51 1013.4
20260507161516 7 306 16.1 37.0 0.00 0.00 0.00 50 1013.3
20260507161016 7 270 17.7 29.0 0.00 0.00 0.00 48 1013.3
20260507160536 7 273 14.5 29.0 0.00 0.00 0.00 49 1013.4
20260507160016 7 269 17.7 29.0 0.00 0.00 0.00 48 1013.4
20260507155517 7 268 17.7 29.0 0.00 0.00 0.00 47 1013.4
20260507155016 7 257 19.3 30.6 0.00 0.00 0.00 48 1013.2
20260507154516 7 274 17.7 32.2 0.00 0.00 0.00 47 1013.3
20260507154017 8 279 16.1 35.4 0.00 0.00 0.00 47 1013.2
20260507153518 8 300 19.3 35.4 0.00 0.00 0.00 50 1013.2
20260507153016 8 313 19.3 29.0 0.00 0.00 0.00 48 1013.1
20260507152516 7 315 17.7 27.4 0.00 0.00 0.00 49 1013.1
20260507152016 7 307 14.5 29.0 0.00 0.00 0.00 48 1013.0
20260507151516 7 300 16.1 29.0 0.00 0.00 0.00 48 1013.0
20260507151016 7 264 14.5 27.4 0.00 0.00 0.00 50 1012.9
20260507150516 7 284 17.7 33.8 0.00 0.00 0.00 49 1012.9
20260507150016 7 303 16.1 33.8 0.00 0.00 0.00 49 1012.8
20260507145516 7 281 16.1 29.0 0.00 0.00 0.00 48 1012.8
20260507145016 7 259 19.3 25.7 0.00 0.00 0.00 52 1012.9
20260507144516 7 280 16.1 25.7 0.00 0.00 0.00 50 1012.9
20260507144036 7 286 16.1 27.4 0.00 0.00 0.00 50 1012.9
20260507143516 7 272 19.3 27.4 0.00 0.00 0.00 51 1013.0
20260507143037 7 286 16.1 29.0 0.00 0.00 0.00 50 1013.0
20260507142516 7 298 17.7 29.0 0.00 0.00 0.00 49 1013.0
20260507142016 7 282 14.5 24.1 0.00 0.00 0.00 51 1013.1
20260507141516 7 271 16.1 35.4 0.00 0.00 0.00 52 1013.1
20260507141016 7 285 16.1 35.4 0.00 0.00 0.00 51 1013.0
20260507140537 7 310 16.1 27.4 0.00 0.00 0.00 50 1013.0
20260507140017 7 304 19.3 27.4 0.00 0.00 0.00 51 1013.1
20260507135516 7 310 17.7 30.6 0.00 0.00 0.00 52 1013.1
20260507135016 7 266 17.7 30.6 0.00 0.00 0.00 54 1013.1
20260507134556 7 295 16.1 30.6 0.00 0.00 0.00 54 1013.0
20260507134017 7 285 9.7 27.4 0.00 0.00 0.00 55 1013.0
20260507133516 6 274 14.5 27.4 0.00 0.00 0.00 56 1013.0
20260507133016 6 282 11.3 20.9 0.00 0.00 0.00 60 1012.8
20260507132517 6 258 12.9 20.9 0.00 0.00 0.00 61 1012.7
20260507132036 6 273 12.9 20.9 0.00 0.00 0.00 62 1012.8
20260507131516 6 288 11.3 20.9 0.00 0.00 0.00 62 1012.9
20260507131016 6 275 12.9 20.9 0.00 0.00 0.00 63 1012.8
20260507130516 6 268 12.9 22.5 0.00 0.00 0.00 63 1012.8
20260507130017 6 264 14.5 22.5 0.00 0.00 0.00 64 1012.7
20260507125516 5 269 14.5 19.3 0.00 0.00 0.00 64 1012.7
20260507125038 5 290 11.3 19.3 0.00 0.00 0.00 64 1012.6
20260507124516 5 272 11.3 19.3 0.00 0.00 0.00 65 1012.6
20260507124016 5 280 11.3 17.7 0.00 0.00 0.00 66 1012.6
20260507123517 5 282 8.0 17.7 0.00 0.00 0.00 66 1012.6
20260507123016 5 269 9.7 17.7 0.00 0.00 0.00 68 1012.5
20260507122516 5 287 9.7 17.7 0.00 0.00 0.00 68 1012.6
20260507122016 5 288 9.7 17.7 0.00 0.00 0.00 69 1012.5
20260507121536 5 287 6.4 14.5 0.00 0.00 0.00 70 1012.6
20260507121036 5 281 8.0 19.3 0.00 0.00 0.00 71 1012.6
20260507120517 4 287 9.7 19.3 0.00 0.00 0.00 71 1012.6
20260507120016 4 283 9.7 17.7 0.00 0.00 0.00 72 1012.6
20260507115515 4 287 9.7 17.7 0.00 0.00 0.00 73 1012.6
20260507115037 4 277 8.0 14.5 0.00 0.00 0.00 74 1012.6
20260507114515 3 279 6.4 14.5 0.00 0.00 0.00 76 1012.5
20260507114016 3 285 8.0 12.9 0.00 0.00 0.00 77 1012.4
20260507113516 3 272 8.0 12.9 0.00 0.00 0.00 79 1012.3
20260507113016 2 268 4.8 11.3 0.00 0.00 0.00 81 1012.3
20260507112516 2 259 4.8 6.4 0.00 0.00 0.00 81 1012.3
20260507112015 2 257 4.8 11.3 0.00 0.00 0.00 82 1012.2
20260507111515 2 249 6.4 11.3 0.00 0.00 0.00 82 1012.1
20260507111016 2 252 4.8 9.7 0.00 0.00 0.00 82 1012.1
20260507110515 2 252 4.8 9.7 0.00 0.00 0.00 82 1012.1
20260507110015 1 247 4.8 8.0 0.00 0.00 0.00 82 1012.0
20260507105536 1 243 4.8 8.0 0.00 0.00 0.00 81 1011.9
20260507105016 2 236 4.8 8.0 0.00 0.00 0.00 81 1011.9
20260507104535 2 234 4.8 8.0 0.00 0.00 0.00 81 1012.0
20260507104016 2 226 4.8 8.0 0.00 0.00 0.00 81 1011.8
20260507103515 1 225 4.8 8.0 0.00 0.00 0.00 81 1011.9
20260507103016 1 232 3.2 8.0 0.00 0.00 0.00 80 1011.8
20260507102517 2 232 3.2 6.4 0.00 0.00 0.00 80 1011.7
20260507102015 2 241 3.2 6.4 0.00 0.00 0.00 80 1011.8
20260507101516 2 239 3.2 6.4 0.00 0.00 0.00 79 1011.8
20260507101016 2 235 3.2 6.4 0.00 0.00 0.00 79 1011.8
20260507100515 2 234 3.2 6.4 0.00 0.00 0.00 78 1011.8
20260507100016 2 232 3.2 6.4 0.00 0.00 0.00 77 1011.8
20260507095515 2 252 3.2 6.4 0.00 0.00 0.00 77 1011.7
20260507095015 2 257 3.2 4.8 0.00 0.00 0.00 77 1011.7
20260507094516 2 253 3.2 4.8 0.00 0.00 0.00 76 1011.7
20260507094015 2 254 3.2 4.8 0.00 0.00 0.00 75 1011.7
20260507093515 3 233 1.6 6.4 0.00 0.00 0.00 75 1011.7
20260507093015 3 230 1.6 6.4 0.00 0.00 0.00 74 1011.8
20260507092557 3 219 1.6 3.2 0.00 0.00 0.00 74 1011.8
20260507092016 3 232 1.6 3.2 0.00 0.00 0.00 74 1011.8
20260507091516 3 233 0.0 4.8 0.00 0.00 0.00 73 1011.8
20260507091015 3 241 1.6 4.8 0.00 0.00 0.00 72 1011.8
20260507090515 3 252 1.6 4.8 0.00 0.00 0.00 72 1011.9
20260507090057 3 271 0.0 3.2 0.00 0.00 0.00 72 1011.9
20260507085515 4 269 1.6 4.8 0.00 0.00 0.00 71 1012.0
20260507085015 4 270 3.2 6.4 0.00 0.00 0.00 71 1012.0
20260507084515 4 279 3.2 9.7 0.00 0.00 0.00 70 1012.0
20260507084015 4 281 4.8 9.7 0.00 0.00 0.00 70 1012.0
20260507083515 4 283 3.2 11.3 0.00 0.00 0.00 69 1011.9
20260507083016 4 282 4.8 11.3 0.00 0.00 0.00 69 1012.0
20260507082516 4 289 4.8 11.3 0.00 0.00 0.00 68 1011.9
20260507082016 4 283 4.8 11.3 0.00 0.00 0.00 68 1012.0
20260507081535 4 282 6.4 11.3 0.00 0.00 0.00 68 1012.0
20260507081015 5 291 4.8 12.9 0.00 0.00 0.00 67 1012.0
20260507080515 5 287 4.8 12.9 0.00 0.00 0.00 67 1012.0
20260507080015 5 288 4.8 11.3 0.00 0.00 0.00 67 1012.0
20260507075515 5 298 4.8 11.3 0.00 0.00 0.00 67 1012.0
20260507075015 5 302 6.4 12.9 0.00 0.00 0.00 67 1011.9
20260507074515 5 300 4.8 12.9 0.00 0.00 0.00 68 1011.9
20260507074015 5 303 4.8 11.3 0.00 0.00 0.00 68 1012.0
20260507073535 5 299 4.8 11.3 0.00 0.00 0.00 68 1012.0
20260507073015 5 294 4.8 9.7 0.00 0.00 0.00 69 1012.0
20260507072535 5 291 4.8 11.3 0.00 0.00 0.00 69 1012.1
20260507072015 5 282 4.8 11.3 0.00 0.00 0.00 69 1012.1
20260507071517 5 292 4.8 11.3 0.00 0.00 0.00 70 1012.1
20260507071015 5 302 6.4 11.3 0.00 0.00 0.00 70 1012.0
20260507070515 5 298 4.8 11.3 0.00 0.00 0.00 70 1012.0
20260507070015 5 293 6.4 12.9 0.00 0.00 0.00 69 1012.0
20260507065515 5 300 8.0 17.7 0.00 0.00 0.00 69 1012.0
20260507065016 5 304 8.0 17.7 0.00 0.00 0.00 69 1012.0
20260507064515 5 293 8.0 14.5 0.00 0.00 0.00 69 1012.0
20260507064015 6 290 8.0 14.5 0.00 0.00 0.00 68 1012.1
20260507063515 6 295 6.4 12.9 0.00 0.00 0.00 68 1012.1
20260507063035 6 296 8.0 14.5 0.00 0.00 0.00 68 1012.1
20260507062515 6 302 9.7 14.5 0.00 0.00 0.00 68 1012.2
20260507062015 6 298 8.0 16.1 0.00 0.00 0.00 67 1012.1
20260507061516 6 306 9.7 16.1 0.00 0.00 0.00 67 1012.1
20260507061016 6 292 8.0 14.5 0.00 0.00 0.00 67 1012.0
20260507060536 6 279 8.0 14.5 0.00 0.00 0.00 66 1012.0
20260507060015 6 273 6.4 14.5 0.00 0.00 0.00 66 1012.0
20260507055515 6 267 4.8 11.3 0.00 0.00 0.00 65 1012.0
20260507055035 6 266 6.4 11.3 0.00 0.00 0.00 64 1011.9
20260507054515 6 271 6.4 9.7 0.00 0.00 0.00 63 1012.0
20260507054015 6 273 6.4 9.7 0.00 0.00 0.00 62 1012.0
20260507053515 6 283 4.8 11.3 0.00 0.00 0.00 62 1012.0
20260507053036 6 277 4.8 11.3 0.00 0.00 0.00 62 1012.0
20260507052557 6 274 4.8 11.3 0.00 0.00 0.00 61 1012.1
20260507052057 6 283 4.8 9.7 0.00 0.00 0.00 62 1012.1
20260507051517 6 279 3.2 6.4 0.00 0.00 0.00 62 1012.0
20260507051017 6 264 3.2 9.7 0.00 0.00 0.00 64 1012.1
20260507050517 6 265 4.8 9.7 0.00 0.00 0.00 63 1012.0
20260507050017 6 272 3.2 6.4 0.00 0.00 0.00 64 1012.0
20260507045518 6 267 1.6 4.8 0.00 0.00 0.00 65 1011.9
20260507045017 6 277 1.6 4.8 0.00 0.00 0.00 64 1012.0
20260507044517 6 277 1.6 3.2 0.00 0.00 0.00 65 1011.9
20260507044017 6 277 1.6 3.2 0.00 0.00 0.00 65 1012.0
20260507043518 6 281 1.6 3.2 0.00 0.00 0.00 65 1012.0
20260507043057 6 284 1.6 3.2 0.00 0.00 0.00 64 1012.0
20260507042517 7 284 1.6 3.2 0.00 0.00 0.00 64 1012.0
20260507042017 7 0.0 0.0 0.00 0.00 0.00 63 1012.0
20260507041517 7 0.0 0.0 0.00 0.00 0.00 61 1012.0
20260507041017 7 0.0 0.0 0.00 0.00 0.00 61 1012.0
20260507040517 7 0.0 0.0 0.00 0.00 0.00 60 1012.1
20260507040018 7 0.0 0.0 0.00 0.00 0.00 58 1012.0
20260507035515 7 0.0 0.0 0.00 0.00 0.00 57 1012.1
20260507035036 7 0.0 0.0 0.00 0.00 0.00 57 1012.1
20260507034535 7 0.0 0.0 0.00 0.00 0.00 56 1012.1
20260507034015 7 0.0 0.0 0.00 0.00 0.00 56 1012.1
20260507033515 7 0.0 3.2 0.00 0.00 0.00 56 1012.1
20260507033015 7 277 0.0 3.2 0.00 0.00 0.00 57 1012.1
20260507032515 7 277 0.0 6.4 0.00 0.00 0.00 57 1012.2
20260507032035 7 276 1.6 6.4 0.00 0.00 0.00 53 1012.1
20260507031515 7 287 1.6 4.8 0.00 0.00 0.00 53 1012.1
20260507031015 7 280 1.6 3.2 0.00 0.00 0.00 54 1012.1
20260507030515 8 325 1.6 4.8 0.00 0.00 0.00 52 1012.1
20260507030015 8 335 3.2 4.8 0.00 0.00 0.00 54 1012.2
20260507025515 8 287 1.6 4.8 0.00 0.00 0.00 51 1012.2
20260507025035 8 284 1.6 3.2 0.00 0.00 0.00 52 1012.3
20260507024515 8 304 1.6 6.4 0.00 0.00 0.00 51 1012.2
20260507024015 8 311 3.2 6.4 0.00 0.00 0.00 49 1012.2
20260507023515 8 319 3.2 6.4 0.00 0.00 0.00 49 1012.2
20260507023015 8 307 3.2 6.4 0.00 0.00 0.00 49 1012.2
20260507022515 8 317 1.6 4.8 0.00 0.00 0.00 48 1012.1
20260507022016 8 316 1.6 4.8 0.00 0.00 0.00 48 1012.0
20260507021515 8 324 3.2 6.4 0.00 0.00 0.00 48 1012.0
20260507021016 8 329 3.2 6.4 0.00 0.00 0.00 48 1012.0
20260507020515 8 320 3.2 6.4 0.00 0.00 0.00 48 1012.0
20260507020016 8 309 1.6 6.4 0.00 0.00 0.00 47 1011.8
20260507015515 8 307 3.2 6.4 0.00 0.00 0.00 46 1011.8
20260507015016 8 311 3.2 6.4 0.00 0.00 0.00 46 1011.7
20260507014515 8 324 3.2 6.4 0.00 0.00 0.00 46 1011.6
20260507014015 8 323 3.2 6.4 0.00 0.00 0.00 46 1011.7
20260507013515 9 319 3.2 4.8 0.00 0.00 0.00 46 1011.7
20260507013056 9 332 3.2 6.4 0.00 0.00 0.00 46 1011.6
20260507012516 9 309 3.2 6.4 0.00 0.00 0.00 46 1011.6
20260507012036 9 290 1.6 4.8 0.00 0.00 0.00 45 1011.6
20260507011515 9 295 3.2 4.8 0.00 0.00 0.00 44 1011.6
20260507011017 9 298 1.6 6.4 0.00 0.00 0.00 44 1011.6
20260507010516 9 296 3.2 6.4 0.00 0.00 0.00 44 1011.5
20260507010017 9 280 3.2 6.4 0.00 0.00 0.00 44 1011.5
20260507005517 9 273 3.2 6.4 0.00 0.00 0.00 44 1011.6
20260507005017 9 273 3.2 11.3 0.00 0.00 0.00 43 1011.4
20260507004518 10 285 4.8 11.3 0.00 0.00 0.00 42 1011.5
20260507004018 10 289 4.8 9.7 0.00 0.00 0.00 42 1011.4
20260507003537 10 290 3.2 6.4 0.00 0.00 0.00 42 1011.4
20260507003017 10 279 3.2 9.7 0.00 0.00 0.00 42 1011.4
20260507002517 10 273 4.8 12.9 0.00 0.00 0.00 42 1011.2
20260507002037 10 275 6.4 16.1 0.00 0.00 0.00 42 1011.2
20260507001517 10 273 6.4 16.1 0.00 0.00 0.00 42 1011.1
20260507001017 10 275 4.8 12.9 0.00 0.00 0.00 42 1011.1
20260507000518 10 284 6.4 16.1 0.00 0.00 0.00 41 1011.1
20260507000018 10 293 9.7 16.1 0.00 0.00 0.00 41 1011.0
20260506235517 10 303 6.4 12.9 0.00 0.00 0.00 41 1011.0
20260506235017 10 308 4.8 9.7 0.00 0.00 0.00 41 1011.1
20260506234518 10 288 4.8 16.1 0.00 0.00 0.00 40 1011.0
20260506234018 10 275 9.7 16.1 0.00 0.00 0.00 39 1011.0
20260506233537 10 287 6.4 16.1 0.00 0.00 0.00 40 1011.0
20260506233016 10 288 8.0 19.3 0.00 0.00 0.00 40 1010.9
20260506232517 10 318 9.7 19.3 0.00 0.00 0.00 40 1011.0
20260506232016 10 300 9.7 19.3 0.00 0.00 0.00 39 1011.0
20260506231518 10 288 11.3 17.7 0.00 0.00 0.00 39 1011.0
20260506231017 10 289 9.7 22.5 0.00 0.00 0.00 39 1011.0
20260506230517 10 307 12.9 22.5 0.00 0.00 0.00 39 1011.0
20260506230017 11 300 9.7 19.3 0.00 0.00 0.00 38 1011.0
20260506225517 11 297 12.9 19.3 0.00 0.00 0.00 37 1011.0
20260506225037 11 264 9.7 19.3 0.00 0.00 0.00 37 1011.1
20260506224517 11 251 11.3 27.4 0.00 0.00 0.00 38 1011.1
20260506224018 11 275 14.5 27.4 0.00 0.00 0.00 37 1011.2
20260506223517 11 257 11.3 24.1 0.00 0.00 0.00 38 1011.1
20260506223017 11 260 14.5 27.4 0.00 0.00 0.00 39 1011.1
20260506222518 11 249 16.1 27.4 0.00 0.00 0.00 38 1011.1
20260506222016 11 287 17.7 32.2 0.00 0.00 0.00 37 1011.2
20260506221517 11 319 17.7 32.2 0.00 0.00 0.00 37 1011.1
20260506221016 11 305 12.9 24.1 0.00 0.00 0.00 38 1011.1
20260506220516 11 305 17.7 24.1 0.00 0.00 0.00 37 1011.1
20260506220016 11 293 12.9 22.5 0.00 0.00 0.00 37 1011.1
20260506215518 11 284 12.9 25.7 0.00 0.00 0.00 38 1011.1
20260506215017 11 304 16.1 25.7 0.00 0.00 0.00 37 1011.0
20260506214537 11 305 12.9 20.9 0.00 0.00 0.00 38 1010.9
20260506214016 11 301 12.9 25.7 0.00 0.00 0.00 37 1011.0
20260506213516 11 310 14.5 25.7 0.00 0.00 0.00 37 1011.1
20260506213017 11 308 12.9 22.5 0.00 0.00 0.00 38 1011.1
20260506212537 11 309 16.1 25.7 0.00 0.00 0.00 37 1011.0
20260506212016 11 317 16.1 27.4 0.00 0.00 0.00 36 1011.1
20260506211516 11 295 16.1 27.4 0.00 0.00 0.00 35 1011.0
20260506211017 11 290 14.5 25.7 0.00 0.00 0.00 37 1011.1
20260506210517 11 263 16.1 27.4 0.00 0.00 0.00 41 1011.1
20260506210016 11 293 16.1 27.4 0.00 0.00 0.00 36 1011.2
20260506205516 11 298 14.5 30.6 0.00 0.00 0.00 36 1011.1
20260506205016 11 288 17.7 30.6 0.00 0.00 0.00 37 1011.3
20260506204517 11 293 14.5 25.7 0.00 0.00 0.00 37 1011.3
20260506204036 11 289 14.5 30.6 0.00 0.00 0.00 37 1011.3